Regional Weather Roundup
Issued by NWS

Home | Current Version | Previous Version | Graphics & Text | Print | Product List | Glossary On
Versions: 1 2 3 4 5 6 7 8 9 10 11 12 13 14 15 16 17 18 19 20 21 22 23 24 25 26 27 28 29 30 31 32 33 34 35 36 37 38 39 40 41 42 43 44 45 46 47 48 49 50
000
ASUS43 KLMK 230502
RWRKY
KENTUCKY REGIONAL WEATHER ROUNDUP
NATIONAL WEATHER SERVICE LOUISVILLE KY
100 AM EDT WED JUL 23 2014

NOTE "FAIR" INDICATES FEW OR NO CLOUDS BELOW 12,000 FEET
WITH NO SIGNIFICANT WEATHER AND/OR OBSTRUCTIONS TO VISIBILITY.

KYZ001>023-026-027-061>063-070>075-230600-
WESTERN AND SOUTH CENTRAL KENTUCKY

CITY           SKY/WX    TMP DP  RH WIND       PRES   REMARKS
PADUCAH        CLEAR     73  70  90 CALM      30.05F FOG
HENDERSON      CLEAR    N/A N/A N/A MISG        N/A
OWENSBORO      CLEAR     75  71  87 CALM      30.04F
HOPKINSVILLE   CLEAR     78  75  90 SW5       30.07S
BOWLING GREEN  CLEAR     79  69  71 S6        30.07S
GLASGOW        CLEAR     76  69  79 CALM      30.08S
$$

KYZ024-025-028>034-038-045-046-053-230600-
NORTH CENTRAL KENTUCKY

CITY           SKY/WX    TMP DP  RH WIND       PRES   REMARKS
LOUISVILLE/SDF PTCLDY    81  72  74 SW5       30.03F
LOUISVILLE/LOU CLEAR     80  70  71 CALM      30.04F
FORT KNOX      CLEAR     72  72  99 W2        30.05F
$$

KYZ035>037-039>044-047>052-055>060-089>105-230600-
NORTHEAST KENTUCKY

CITY           SKY/WX    TMP DP  RH WIND       PRES   REMARKS
LEXINGTON      PTCLDY    77  69  76 S5        30.07F
COVINGTON      CLEAR     75  69  81 SW5       30.04F
FRANKFORT      MOCLDY    75  72  90 NW5       30.05F
$$

KYZ054-064>069-076>088-106>120-230600-
SOUTHEAST KENTUCKY

CITY           SKY/WX    TMP DP  RH WIND       PRES   REMARKS
JACKSON        CLEAR     74  71  91 CALM      30.09F
LONDON         CLEAR     75  71  87 CALM      30.10F
SOMERSET       CLEAR     72  72 100 CALM      30.10S FOG
MIDDLESBORO    PTCLDY    70  69  96 CALM      30.12F
MONTICELLO     PTCLDY    73  73 100 CALM      30.10F FOG
$$




USA.gov is the U.S. government's official web portal to all federal, state and local government web resources and services.